{"data":{"norad_id":64166,"intl_designator":"2025-112W","name":"STARLINK-34313","alt_names":[],"object_type":"PAYLOAD","status":"ACTIVE","operator":null,"country":"US","launch_date":"2025-05-27","launch_site_code":"AFWTR","launch_vehicle":null,"mission":null,"orbit_class":"UNKNOWN","rcs_meters":null,"size_class":null,"mass_kg":null,"dimensions":null,"purposes":["comms"],"wikipedia_slug":null,"has_3d_model":false,"image_url":null,"decayed_at":null,"tle_current":{"epoch":"2026-09-20T13:30:07.260192Z","epoch_age_seconds":134902,"freshness":"FRESH","line1":"1 64166U 25112W   26263.56258403  .00020698  00000+0  64147-3 0  9995","line2":"2 64166  97.2842 310.5771 0002475  56.2491 303.8987 15.33453732 72751","mean_motion":15.33453732,"eccentricity":0.0002475,"inclination_deg":97.2842,"raan_deg":310.5771,"arg_perigee_deg":56.2491,"mean_anomaly_deg":303.8987,"bstar":0.00064147,"rev_number":7275,"period_min":93.905669923401,"perigee_km":463.82338989981,"apogee_km":467.21099872599,"semimajor_km":6843.6541943129,"source":"CELESTRAK","updated_at":"2026-09-21T09:00:35.241638Z"}}}